Skip Page Navigation
NASA JPL Caltech
NASA Logo - Jet Propulsion Laboratory + View the NASA Portal
+ Center for Near-Earth Object Studies
JPL Home Earth Solar System Stars & Galaxies Technology
JPL Solar System Dynamics
BODIES ORBITS EPHEMERIDES TOOLS PHYSICAL DATA DISCOVERY FAQ SITE MAP
JPL Small-Body Database Browser
Search: [ help ]  
59359 (1999 DV)
Classification: Main-belt Asteroid          SPK-ID: 2059359
Ephemeris | Orbit Diagram | Orbital Elements | Mission Design | Physical Parameters | Discovery Circumstances ]

[ show orbit diagram ]
Orbital Elements at Epoch 2459000.5 (2020-May-31.0) TDB
Reference: JPL 19 (heliocentric ecliptic J2000)
 Element Value Uncertainty (1-sigma)   Units 
e .1401564153479206 3.2095e-08  
a 2.314220338617537 7.4822e-09 au
q 1.989867511631652 7.4395e-08 au
i 4.035500450552972 3.5084e-06 deg
node 71.01834378318209 5.5557e-05 deg
peri 337.7942016265072 5.7544e-05 deg
M 111.2180803200749 1.4309e-05 deg
tp 2458603.236760375363
(2019-Apr-29.73676038)
5.0689e-05 TDB
period 1285.894935906885
3.52
6.2362e-06
1.707e-08
d
yr
n .2799606639294429 1.3577e-09 deg/d
Q 2.638573165603422 8.5309e-09 au
  Orbit Determination Parameters
   # obs. used (total)      1956  
   data-arc span      17927 days (49.08 yr)  
   first obs. used      1971-03-24  
   last obs. used      2020-04-22  
   planetary ephem.      DE431  
   SB-pert. ephem.      SB431-N16  
   condition code      0  
   norm. resid. RMS      .50694  
   source      ORB  
   producer      Otto Matic  
   solution date      2020-May-20 11:45:14  

Additional Information
 Earth MOID = 1.00084 au 
 Jupiter MOID = 2.71196 au 
 T_jup = 3.566 
[ show covariance matrix ]

Ephemeris | Orbit Diagram | Orbital Elements | Mission Design | Physical Parameters | Discovery Circumstances ]

Physical Parameter Table
Parameter Symbol Value Units Sigma Reference Notes
absolute magnitude H 15.0   n/a MPO412564  
diameter diameter 2.512 km 0.577 urn:nasa:pds:neowise_diameters_albedos::2.0[mainbelt] (http://adsabs.harvard.edu/abs/2011ApJ...741...68M)  
geometric albedo albedo 0.286   0.090 urn:nasa:pds:neowise_diameters_albedos::2.0[mainbelt] (http://adsabs.harvard.edu/abs/2011ApJ...741...68M)  

59359 (1999 DV)          Discovered 1999-Feb-16 by Kagawa, T. at Gekko
Reference: 20030614/Numbers.arcLast Updated: 2004-04-19

Alternate Designations
 1999 DV = 4099 T-1 
Ephemeris | Orbit Diagram | Orbital Elements | Mission Design | Physical Parameters | Discovery Circumstances ]
ABOUT SSD CREDITS/AWARDS PRIVACY/COPYRIGHT GLOSSARY LINKS
FirstGov 2020-Jul-04 05:13 UT
(server date/time)  
NASA Home Page
Site Manager:   Ryan S. Park
Webmaster  Alan B. Chamberlin